User: anonymous   Login
Location: Unspecified
(0.0000°N, 0.0000°E)
Time: 09:59:54
(UTC+00:00)
Language:

Astrid - Orbit

View from above orbital plane
View from above orbital plane
View from above satellite
View from above satellite

Ground track
Ground track

The orbit data is extracted from the following two-line orbital elements,

1 23464U 95002B   18319.92161735  .00000061  00000-0  50320-4 0  9992
2 23464  82.9270 267.3047 0039543 285.6238  74.0555 13.72560100192447
Epoch (UTC): 15 November 2018 22:07:07
Eccentricity: 0.0039543
inclination: 82.9270°
perigee height: 961 km
apogee height: 1019 km
right ascension of ascending node: 267.3047°
argument of perigee: 285.6238°
revolutions per day: 13.72560100
mean anomaly at epoch: 74.0555°
orbit number at epoch: 19244

The dashed part of the orbit path shows where the satellite is in the earth's shadow,  

DLR